Location: Amsterdam
(30.7274°N, 84.4357°W)
Time: 06:57:14
(UTC+00:00)

Courier 1B Rocket - Pass Details

Date: 15 February 2026
Orbit: 920 x 1201 km, 28.2° (Epoch: 9 March)

Event Time Altitude Azimuth Distance (km) Brightness Sun altitude
Rises 06:55:00 0° 274° (W) 3,803 - -66.8°
Reaches altitude 10° 06:57:50 10° 267° (W) 2,892 - -66.4°
Maximum altitude 07:04:19 38° 201° (SSW) 1,633 - -65.4°
Drops below altitude 10° 07:11:12 10° 136° (SE) 3,062 - -64.3°
Sets 07:14:18 0° 129° (SE) 4,051 - -63.8°
